Time,TemperatureF,DewpointF,PressureIn,WindDirection,WindDirectionDegrees,WindSpeedMPH,WindSpeedGustMPH,Humidity,HourlyPrecipIn,Conditions,Clouds,dailyrainin,SoftwareType,DateUTC
2015-05-06 00:13:00,56.3,41.0,29.73,SSW,210,13.0,17.0,56,0.00,,,0.00,weatherlink.com 1.10,2015-05-06 06:13:00,
2015-05-06 00:28:00,56.6,40.0,29.72,SSW,211,14.0,22.0,55,0.00,,,0.00,weatherlink.com 1.10,2015-05-06 06:28:00,
2015-05-06 00:43:00,55.9,41.0,29.71,SW,222,19.0,24.0,58,0.00,,,0.00,weatherlink.com 1.10,2015-05-06 06:43:00,
2015-05-06 00:58:00,56.0,41.0,29.71,SW,214,17.0,25.0,57,0.00,,,0.00,weatherlink.com 1.10,2015-05-06 06:58:00,
2015-05-06 01:13:00,56.4,41.0,29.71,SW,218,15.0,20.0,56,0.00,,,0.00,weatherlink.com 1.10,2015-05-06 07:13:00,
2015-05-06 01:28:00,55.3,43.0,29.72,ENE,67,2.0,19.0,63,0.00,,,0.00,weatherlink.com 1.10,2015-05-06 07:28:00,
2015-05-06 01:43:00,55.1,42.0,29.72,East,81,3.0,9.0,62,0.00,,,0.00,weatherlink.com 1.10,2015-05-06 07:43:00,
2015-05-06 01:58:00,54.4,43.0,29.73,NE,52,5.0,6.0,66,0.00,,,0.00,weatherlink.com 1.10,2015-05-06 07:58:00,
2015-05-06 02:13:00,54.1,42.0,29.72,ENE,67,1.0,6.0,65,0.00,,,0.00,weatherlink.com 1.10,2015-05-06 08:13:00,
2015-05-06 02:28:00,53.7,42.0,29.72,SE,134,1.0,6.0,65,0.00,,,0.00,weatherlink.com 1.10,2015-05-06 08:28:00,
2015-05-06 02:43:00,53.5,42.0,29.72,East,97,2.0,3.0,66,0.00,,,0.00,weatherlink.com 1.10,2015-05-06 08:43:00,
2015-05-06 02:58:00,51.8,44.0,29.73,East,80,2.0,8.0,74,0.00,,,0.00,weatherlink.com 1.10,2015-05-06 08:58:00,
2015-05-06 03:13:00,51.3,44.0,29.73,East,79,1.0,6.0,77,0.00,,,0.00,weatherlink.com 1.10,2015-05-06 09:13:00,
2015-05-06 03:28:00,51.1,45.0,29.73,ESE,120,2.0,2.0,79,0.00,,,0.00,weatherlink.com 1.10,2015-05-06 09:28:00,
2015-05-06 03:43:00,50.2,46.0,29.72,SSE,148,2.0,5.0,84,0.00,,,0.00,weatherlink.com 1.10,2015-05-06 09:43:00,
2015-05-06 03:58:00,49.9,46.0,29.72,South,191,5.0,5.0,86,0.01,,,0.01,weatherlink.com 1.10,2015-05-06 09:58:00,
2015-05-06 04:13:00,49.7,46.0,29.72,SSW,198,3.0,8.0,86,0.01,,,0.01,weatherlink.com 1.10,2015-05-06 10:13:00,
2015-05-06 04:29:00,49.6,46.0,29.71,SSW,206,7.0,7.0,87,0.02,,,0.02,weatherlink.com 1.10,2015-05-06 10:29:00,
2015-05-06 04:44:00,49.4,46.0,29.71,SW,214,2.0,6.0,87,0.03,,,0.03,weatherlink.com 1.10,2015-05-06 10:44:00,
2015-05-06 04:59:00,49.3,46.0,29.71,South,189,1.0,5.0,88,0.02,,,0.03,weatherlink.com 1.10,2015-05-06 10:59:00,
2015-05-06 05:14:00,49.3,46.0,29.71,SSW,192,2.0,3.0,87,0.03,,,0.04,weatherlink.com 1.10,2015-05-06 11:14:00,
2015-05-06 05:29:00,49.4,46.0,29.71,East,85,1.0,2.0,87,0.02,,,0.04,weatherlink.com 1.10,2015-05-06 11:29:00,